Date String (YYYY-MM-DD hh:mm:ss) UTC,Instrument flags,absolute air pressure of the measurement (hPa),sample flow rate (lpm),inlet stack bypass flow (lpm),air temperature of the measurement (°C),ambient temperature measured by the external sensor (°C),aerosol sample conditioner tube jacket temperature (°C),OPC LED temperature (°C),internal box temperature (°C),relative humidity of the measurement (%),span deviation,mass concentration of particles derived from Lorenz-Mie calculation of OPC scattering (μg/m³),mass concentration of particles derived from Lorenz-Mie calculation of OPC scattering (μg/m³),mass concentration of particles derived from Lorenz-Mie calculation of OPC scattering (μg/m³)
DateTimeUTC,F1_M11,P_M11,Q1_M11,Q2_M11,T1_M11,T2_M11,T3_M11,T4_M11,T5_M11,U1_M11,ZSPAN_M11,X0_M11,X2_M11,X1_M11
2024-03-14 01:00:00,SystemResetWarning,0821.6,5.00,000.00,021.2,020.4,000.0,029.8,023.0,25.3,0000.0,0004.51,0002.92,0002.30
2024-03-14 01:01:00,SystemResetWarning,0821.6,5.00,000.00,021.2,020.4,000.0,029.8,023.1,25.3,0000.0,0004.23,0002.87,0002.27
2024-03-14 01:02:00,SystemResetWarning,0821.6,5.01,000.00,021.2,020.4,000.0,029.8,023.1,25.3,0000.0,0004.25,0002.81,0002.24
2024-03-14 01:03:00,SystemResetWarning,0821.6,5.00,000.00,021.2,020.4,000.0,029.8,023.0,25.3,0000.0,0004.09,0002.76,0002.19
2024-03-14 01:04:00,SystemResetWarning,0821.6,5.01,000.00,021.2,020.4,000.0,029.8,023.0,25.4,0000.0,0003.99,0002.71,0002.15
2024-03-14 01:05:00,SystemResetWarning,0821.6,5.00,000.00,021.2,020.4,000.0,029.8,023.0,25.5,0000.0,0003.84,0002.65,0002.13
2024-03-14 01:06:00,SystemResetWarning,0821.6,4.99,000.00,021.2,020.4,000.0,029.8,023.0,25.6,0000.0,0003.61,0002.57,0002.09
2024-03-14 01:07:00,SystemResetWarning,0821.7,5.00,000.00,021.2,020.3,000.0,029.8,023.0,25.6,0000.0,0003.47,0002.51,0002.06
2024-03-14 01:08:00,SystemResetWarning,0821.7,5.00,000.00,021.2,020.3,000.0,029.8,023.0,25.7,0000.0,0004.38,0002.44,0002.02
2024-03-14 01:09:00,SystemResetWarning,0821.7,4.99,000.00,021.2,020.3,000.0,029.8,023.0,25.7,0000.0,0004.74,0002.35,0001.97
2024-03-14 01:10:00,SystemResetWarning,0821.8,5.00,000.00,021.2,020.3,000.0,029.8,023.0,25.8,0000.0,0004.46,0002.22,0001.91
2024-03-14 01:11:00,SystemResetWarning,0821.8,5.00,000.00,021.2,020.3,000.0,029.8,023.0,25.8,0000.0,0004.27,0002.11,0001.87
2024-03-14 01:12:00,SystemResetWarning,0821.8,5.00,000.00,021.2,020.3,000.0,029.8,023.0,25.8,0000.0,0004.24,0002.07,0001.82
2024-03-14 01:13:00,SystemResetWarning,0821.8,5.00,000.00,021.2,020.3,000.0,029.8,023.0,25.9,0000.0,0004.29,0002.05,0001.78
2024-03-14 01:14:00,SystemResetWarning,0821.8,5.00,000.00,021.2,020.3,000.0,029.8,023.0,25.9,0000.0,0004.32,0002.05,0001.76
2024-03-14 01:15:00,SystemResetWarning,0821.8,5.01,000.00,021.2,020.3,000.0,029.8,023.0,26.0,0000.0,0004.29,0002.02,0001.74
2024-03-14 01:16:00,SystemResetWarning,0821.8,5.00,000.00,021.2,020.3,000.0,029.7,023.0,26.1,0000.0,0004.25,0002.01,0001.72
2024-03-14 01:17:00,SystemResetWarning,0821.8,5.00,000.00,021.2,020.3,000.0,029.7,023.0,26.5,0000.0,0004.29,0002.02,0001.71
2024-03-14 01:18:00,SystemResetWarning,0821.8,5.00,000.00,021.1,020.3,000.0,029.7,023.0,27.2,0000.0,0004.48,0002.02,0001.69
2024-03-14 01:19:00,SystemResetWarning,0821.8,5.00,000.00,021.1,020.3,000.0,029.7,023.0,26.8,0000.0,0003.98,0002.02,0001.67
2024-03-14 01:20:00,SystemResetWarning,0821.9,5.00,000.00,021.1,020.3,000.0,029.7,023.0,26.6,0000.0,0003.71,0002.05,0001.66
2024-03-14 01:21:00,SystemResetWarning,0821.8,5.00,000.00,021.1,020.3,000.0,029.7,023.0,26.7,0000.0,0003.73,0002.04,0001.68
2024-03-14 01:22:00,SystemResetWarning,0821.9,5.00,000.00,021.1,020.3,000.0,029.7,023.0,26.7,0000.0,0003.76,0002.05,0001.67
2024-03-14 01:23:00,SystemResetWarning,0821.9,5.00,000.00,021.1,020.3,000.0,029.7,022.9,26.6,0000.0,0003.80,0002.05,0001.65
2024-03-14 01:24:00,SystemResetWarning,0821.9,5.00,000.00,021.1,020.3,000.0,029.7,022.9,26.7,0000.0,0003.59,0002.02,0001.65
2024-03-14 01:25:00,SystemResetWarning,0822.0,5.00,000.00,021.1,020.3,000.0,029.7,022.9,26.7,0000.0,0003.56,0002.01,0001.66
2024-03-14 01:26:00,SystemResetWarning,0822.0,5.00,000.00,021.1,020.3,000.0,029.7,022.9,26.8,0000.0,0003.64,0002.04,0001.66
2024-03-14 01:27:00,SystemResetWarning,0821.9,5.00,000.00,021.1,020.3,000.0,029.7,022.9,26.9,0000.0,0003.78,0002.08,0001.66
2024-03-14 01:28:00,SystemResetWarning,0821.9,5.00,000.00,021.1,020.3,000.0,029.7,022.9,26.9,0000.0,0003.89,0002.13,0001.67
2024-03-14 01:29:00,SystemResetWarning,0821.9,5.00,000.00,021.1,020.3,000.0,029.7,022.9,27.0,0000.0,0003.74,0002.16,0001.69
2024-03-14 01:30:00,SystemResetWarning,0822.0,5.00,000.00,021.1,020.3,000.0,029.7,022.9,27.0,0000.0,0003.69,0002.21,0001.72
2024-03-14 01:31:00,SystemResetWarning,0822.0,5.00,000.00,021.1,020.3,000.0,029.7,022.9,27.0,0000.0,0003.20,0002.22,0001.74
2024-03-14 01:32:00,SystemResetWarning,0822.0,5.00,000.00,021.1,020.3,000.0,029.7,022.9,27.0,0000.0,0003.19,0002.24,0001.75
2024-03-14 01:33:00,SystemResetWarning,0822.0,5.00,000.00,021.1,020.3,000.0,029.7,022.9,27.1,0000.0,0003.34,0002.31,0001.78
2024-03-14 01:34:00,SystemResetWarning,0822.0,5.00,000.00,021.1,020.3,000.0,029.7,022.9,27.2,0000.0,0003.37,0002.35,0001.82
2024-03-14 01:35:00,SystemResetWarning,0822.0,5.00,000.00,021.1,020.3,000.0,029.7,022.9,27.3,0000.0,0003.44,0002.40,0001.85
2024-03-14 01:36:00,SystemResetWarning,0822.0,5.00,000.00,021.1,020.3,000.0,029.7,022.9,27.3,0000.0,0003.54,0002.45,0001.87
2024-03-14 01:37:00,SystemResetWarning,0822.0,5.00,000.00,021.1,020.3,000.0,029.7,022.9,27.2,0000.0,0003.68,0002.49,0001.90
2024-03-14 01:38:00,SystemResetWarning,0822.0,5.00,000.00,021.1,020.3,000.0,029.7,022.9,27.1,0000.0,0003.62,0002.46,0001.93
2024-03-14 01:39:00,SystemResetWarning,0822.0,5.00,000.00,021.1,020.3,000.0,029.7,022.9,27.1,0000.0,0003.55,0002.45,0001.94
2024-03-14 01:40:00,SystemResetWarning,0822.0,5.00,000.00,021.1,020.3,000.0,029.7,022.9,27.1,0000.0,0003.70,0002.49,0001.97
2024-03-14 01:41:00,SystemResetWarning,0822.0,4.99,000.00,021.1,020.3,000.0,029.6,022.9,27.0,0000.0,0003.84,0002.55,0001.99
2024-03-14 01:42:00,SystemResetWarning,0822.0,5.00,000.00,021.1,020.3,000.0,029.6,022.9,26.9,0000.0,0003.87,0002.59,0002.01
2024-03-14 01:43:00,SystemResetWarning,0822.1,5.00,000.00,021.1,020.2,000.0,029.6,022.9,26.8,0000.0,0003.90,0002.62,0002.04
2024-03-14 01:44:00,SystemResetWarning,0822.0,5.00,000.00,021.1,020.3,000.0,029.6,022.9,26.7,0000.0,0003.82,0002.59,0002.06
2024-03-14 01:45:00,SystemResetWarning,0822.1,4.99,000.00,021.0,020.3,000.0,029.6,022.9,26.5,0000.0,0003.81,0002.57,0002.08
2024-03-14 01:46:00,SystemResetWarning,0822.0,5.00,000.00,021.0,020.2,000.0,029.6,022.9,26.6,0000.0,0003.80,0002.55,0002.08
2024-03-14 01:47:00,SystemResetWarning,0822.1,5.00,000.00,021.0,020.2,000.0,029.6,022.9,26.7,0000.0,0003.89,0002.56,0002.10
2024-03-14 01:48:00,SystemResetWarning,0822.0,5.01,000.00,021.0,020.2,000.0,029.6,022.9,26.8,0000.0,0003.88,0002.57,0002.13
2024-03-14 01:49:00,SystemResetWarning,0822.1,5.00,000.00,021.0,020.2,000.0,029.6,022.9,26.8,0000.0,0004.29,0002.62,0002.16
2024-03-14 01:50:00,SystemResetWarning,0822.1,4.99,000.00,021.0,020.2,000.0,029.6,022.9,26.9,0000.0,0004.51,0002.66,0002.19
2024-03-14 01:51:00,SystemResetWarning,0822.1,5.00,000.00,021.0,020.2,000.0,029.6,022.9,26.9,0000.0,0004.48,0002.69,0002.22
2024-03-14 01:52:00,SystemResetWarning,0822.1,5.01,000.00,021.0,020.2,000.0,029.6,022.9,27.0,0000.0,0004.47,0002.72,0002.26
2024-03-14 01:53:00,SystemResetWarning,0822.1,5.01,000.00,021.0,020.2,000.0,029.6,022.9,27.0,0000.0,0004.51,0002.76,0002.32
2024-03-14 01:54:00,SystemResetWarning,0822.1,5.00,000.00,021.0,020.2,000.0,029.6,022.8,27.0,0000.0,0004.63,0002.84,0002.38
2024-03-14 01:55:00,SystemResetWarning,0822.1,5.00,000.00,021.0,020.3,000.0,029.6,022.9,27.0,0000.0,0004.79,0002.94,0002.47
2024-03-14 01:56:00,SystemResetWarning,0822.1,4.99,000.00,021.0,020.2,000.0,029.6,022.8,26.9,0000.0,0004.88,0003.04,0002.57
2024-03-14 01:57:00,SystemResetWarning,0822.1,5.00,000.00,021.0,020.2,000.0,029.6,022.8,27.0,0000.0,0005.02,0003.14,0002.68
2024-03-14 01:58:00,SystemResetWarning,0822.1,5.00,000.00,021.0,020.2,000.0,029.6,022.8,27.0,0000.0,0004.99,0003.18,0002.78
2024-03-14 01:59:00,SystemResetWarning,0822.1,5.00,000.00,021.0,020.2,000.0,029.6,022.8,27.0,0000.0,0005.11,0003.25,0002.86
